Regional Weather Roundup
Issued by NWS

Home | Current Version | Previous Version | Graphics & Text | Print | Product List | Glossary Off
Versions: 1 2 3 4 5 6 7 8 9 10 11 12 13 14 15 16 17 18 19 20 21 22 23 24 25 26 27 28 29 30 31 32 33 34 35 36 37 38 39 40 41 42 43 44 45 46 47 48 49 50

000
ASUS43 KMKX 191221
RWRWI

WISCONSIN REGIONAL WEATHER ROUNDUP
NATIONAL WEATHER SERVICE MILWAUKEE/SULLIVAN WI
700 AM CDT SAT APR 19 2014

NOTE: "FAIR" INDICATES FEW OR NO CLOUDS BELOW 12,000 FEET WITH NO
SIGNIFICANT WEATHER AND/OR OBSTRUCTIONS TO VISIBILITY.

WIZ001-002-006>008-014>016-023>028-191300-
NORTHWEST WISCONSIN

CITY           SKY/WX    TMP DP  RH WIND       PRES   REMARKS
SUPERIOR ARPT  LGT RAIN  34  30  87 NE7       30.17R WCI  28
6HR MIN TEMP:  31; 6HR MAX TEMP:  34;

ASHLAND        CLOUDY    36  25  64 VRB5      30.23F WCI  32
6HR MIN TEMP:  29; 6HR MAX TEMP:  36;

HAYWARD        MOCLDY    36  24  62 SE16G31   30.19F WCI  26
6HR MIN TEMP:  36; 6HR MAX TEMP:  39;

SIREN          CLOUDY    38  26  63 SE16G29   30.15S WCI  29
6HR MIN TEMP:  38; 6HR MAX TEMP:  42;

RICE LAKE      PTCLDY    36  25  65 SE21G26   30.23S WCI  24
6HR MIN TEMP:  36; 6HR MAX TEMP:  40;

LADYSMITH      MOCLDY    36  26  66 SE14G24   30.28F WCI  27
6HR MIN TEMP:  36; 6HR MAX TEMP:  40;

EAU CLAIRE     PTCLDY    36  24  62 SE13G26   30.27F WCI  27
6HR MIN TEMP:  36; 6HR MAX TEMP:  42;

MENOMONIE      MOSUNNY   36  27  68 E18       30.25F WCI  26
6HR MIN TEMP:  36; 6HR MAX TEMP:  41;

NEW RICHMOND   PTCLDY    38  30  72 SE18G24   30.16S WCI  28
6HR MIN TEMP:  38; 6HR MAX TEMP:  41;

OSCEOLA        PTCLDY    39  31  73 SE13G28   30.19R WCI  31
6HR MIN TEMP:  39; 6HR MAX TEMP:  42;

$$

WIZ003>005-009-010-017-018-191300-
NORTH CENTRAL WISCONSIN

CITY           SKY/WX    TMP DP  RH WIND       PRES   REMARKS
WOODRUFF       PTCLDY    32  25  76 SE12      30.31F WCI  23
6HR MIN TEMP:  32; 6HR MAX TEMP:  34;

RHINELANDER    PTCLDY    28  23  81 SE10      30.35S WCI  19
6HR MIN TEMP:  28; 6HR MAX TEMP:  32;

EAGLE RIVER    MOCLDY    29  23  75 SE9       30.34F WCI  21
6HR MIN TEMP:  29; 6HR MAX TEMP:  31;

LAND O LAKES   MOCLDY    29  24  81 S7        30.34F WCI  22
6HR MIN TEMP:  29; 6HR MAX TEMP:  31;

PHILLIPS       MOCLDY    32  24  72 SE15G21   30.28F WCI  22
6HR MIN TEMP:  32; 6HR MAX TEMP:  35;

TOMAHAWK       CLEAR     30  24  80 SE6       30.34F WCI  24
6HR MIN TEMP:  29; 6HR MAX TEMP:  33;

MEDFORD        PTCLDY    32  25  76 SE12G17   30.32F WCI  23
6HR MIN TEMP:  32; 6HR MAX TEMP:  36;

MERRILL        CLEAR     32  25  77 CALM      30.37S
6HR MIN TEMP:  30; 6HR MAX TEMP:  35;

$$

WIZ029-030-035-036-043>047-191300-
CENTRAL WISCONSIN

CITY           SKY/WX    TMP DP  RH WIND       PRES   REMARKS
WAUSAU         CLEAR     31  26  82 E10       30.37R WCI  22
6HR MIN TEMP:  31; 6HR MAX TEMP:  35;

MOSINEE        CLEAR     30  27  86 E8        30.38S WCI  23
MARSHFIELD     CLEAR     33  26  75 SE13      30.35S WCI  24
6HR MIN TEMP:  32; 6HR MAX TEMP:  38;

STEVENS POINT  CLEAR     30  26  84 E10       30.40R WCI  21
6HR MIN TEMP:  29; 6HR MAX TEMP:  33;

WAUPACA        CLEAR     34  28  80 E7        30.43R WCI  28
WAUTOMA        CLEAR     33  28  82 E7        30.41R WCI  27
6HR MIN TEMP:  32; 6HR MAX TEMP:  35;

WISC RAPIDS    CLEAR     32  26  78 E8        30.39R WCI  25
6HR MIN TEMP:  30; 6HR MAX TEMP:  36;

CAMP DOUGLAS   CLEAR     32  26  80 E6        30.37R WCI  26
6HR MIN TEMP:  31; 6HR MAX TEMP:  39;

$$

WIZ011>013-019>022-031-037>040-048>050-191300-
NORTHEAST WISCONSIN

CITY           SKY/WX    TMP DP  RH WIND       PRES   REMARKS
ANTIGO         PTCLDY    28  25  89 SE9       30.39R WCI  19
6HR MIN TEMP:  28; 6HR MAX TEMP:  32;

STURGEON BAY   MOCLDY    34  27  75 E7        30.45S WCI  28
6HR MIN TEMP:  30; 6HR MAX TEMP:  32;

GREEN BAY      CLEAR     32  29  88 E6        30.45R WCI  26
6HR MIN TEMP:  31; 6HR MAX TEMP:  33;

MANITOWOC      CLEAR     34  30  85 E9        30.45R WCI  27
6HR MIN TEMP:  31; 6HR MAX TEMP:  34;

APPLETON       PTCLDY    32  27  80 E7        30.42S WCI  26
CLINTONVILLE   PTCLDY    32  28  86 E3        30.43R
OSHKOSH        CLEAR     33  27  78 E10       30.41R WCI  25
6HR MIN TEMP:  33; 6HR MAX TEMP:  35;

$$

WIZ032>034-041-042-053>061-191300-
SOUTHWEST WISCONSIN

CITY           SKY/WX    TMP DP  RH WIND       PRES   REMARKS
LA CROSSE      CLEAR     38  25  59 SE12      30.32F WCI  30
6HR MIN TEMP:  37; 6HR MAX TEMP:  47;

SPARTA         CLEAR     35  25  66 E7        30.35S WCI  29
6HR MIN TEMP:  33; 6HR MAX TEMP:  42;

VIROQUA        FAIR      34  26  72 E14G21    30.31S WCI  24
6HR MIN TEMP:  33; 6HR MAX TEMP:  42;

BOSCOBEL       CLEAR     37  24  59 E5        30.35R WCI  33
6HR MIN TEMP:  35; 6HR MAX TEMP:  45;

PRAIRIE DU CHI CLEAR     36  25  64 E6        30.33R WCI  31
6HR MIN TEMP:  35; 6HR MAX TEMP:  46;

PLATTEVILLE    FAIR      34  27  75 E13       30.33R WCI  25
6HR MIN TEMP:  32; 6HR MAX TEMP:  38;

$$

WIZ056-057-062-063-064-067-068-191300-
SOUTH CENTRAL WISCONSIN

CITY           SKY/WX    TMP DP  RH WIND       PRES   REMARKS
BARABOO/DELLS  CLEAR     33  25  72 E8        30.37R WCI  26
6HR MIN TEMP:  32; 6HR MAX TEMP:  35;

LONE ROCK      CLEAR     36  26  67 E10       30.36R WCI  28
6HR MIN TEMP:  34; 6HR MAX TEMP:  40;

WATERTOWN      CLEAR     33  27  78 E10       30.38R WCI  25
6HR MIN TEMP:  32; 6HR MAX TEMP:  34;

MADISON        PTCLDY    34  26  72 E6        30.38R WCI  29
6HR MIN TEMP:  32; 6HR MAX TEMP:  35;

MIDDLETON      FAIR      37  26  65 E12       30.36S WCI  29
6HR MIN TEMP:  36; 6HR MAX TEMP:  37;

MONROE         CLEAR     34  28  77 E9        30.33R WCI  26
6HR MIN TEMP:  32; 6HR MAX TEMP:  34;

JANESVILLE     CLEAR     36  27  69 E12       30.35F WCI  27
$$

WIZ051-052-058>065-066-070>072-191300-
SOUTHEAST WISCONSIN

CITY           SKY/WX    TMP DP  RH WIND       PRES   REMARKS
MILWAUKEE      PTCLDY    34  29  82 E12       30.43R WCI  25
6HR MIN TEMP:  34; 6HR MAX TEMP:  35;

WAUKESHA       CLEAR     32  27  80 E9        30.41R WCI  24
MILWAUKEE/TIMM CLEAR     34  37 100 E6        30.43R WCI  29
RACINE         CLEAR     35  29  78 E10       30.43R WCI  27
6HR MIN TEMP:  34; 6HR MAX TEMP:  36;

BURLINGTON     CLEAR     32  28  85 E7        30.39S WCI  26
6HR MIN TEMP:  31; 6HR MAX TEMP:  32;

KENOSHA        CLEAR     34  29  82 E9        30.40S WCI  27
6HR MIN TEMP:  32; 6HR MAX TEMP:  36;

FOND DU LAC    CLEAR     34  25  69 SE10      30.41R WCI  26
6HR MIN TEMP:  33; 6HR MAX TEMP:  36;

SHEBOYGAN      CLEAR     32  28  85 E7        30.43S WCI  26
6HR MIN TEMP:  30; 6HR MAX TEMP:  33;

WEST BEND      CLEAR     32  28  86 E7        30.41R WCI  26
JUNEAU         CLEAR     33  26  74 E9        30.40R WCI  25
6HR MIN TEMP:  32; 6HR MAX TEMP:  35;

$$

LSZ147-162-191300-
LAKE SUPERIOR

STATION/POSITION TIME  TEMP    WIND        PRES    WAVE
                       AIR SEA DIR/SP/G            HT/PER
                 (UTC) (F)     (DEG/KT/KT) (MB)    (FT/S)
DEVILS ISLAND    1200   34     100/ 14/ 15 1025.4S
PORT WING        1140   37     110/  3/ 10 1022.4F
SAXON HARBOR     1120          160/ 10/ 20 1023.0F
$$

LMZ867-665-643>646-191300-
LAKE MICHIGAN

STATION/POSITION TIME  TEMP    WIND        PRES    WAVE
                       AIR SEA DIR/SP/G            HT/PER
                 (UTC) (F)     (DEG/KT/KT) (MB)    (FT/S)
NORTHPORT PIER   1100   32     100/  5/  7 1031.5R
SISTER BAY       1123   31        CALM       N/A
KEWAUNEE LAKESHO 1200   34      90/  9/ 11 1031.6S
SHEBOYGAN LAKESH 1200   35      80/ 11/ 12 1031.7R
PORT WASHINGTON  1140   36      80/  8/ 11 1030.8R
MILWAUKEE LAKESH 1200   35      70/ 12/ 14   N/A
KENOSHA   LAKESH 1200   36      60/ 13/ 16   N/A
$$

TC  - TEMPERATURE IN CELSIUS
VSB - VISIBILITY IN STATUTE MILES
WCI - WIND CHILL INDEX
HX  - HEAT INDEX




USA.gov is the U.S. government's official web portal to all federal, state and local government web resources and services.